Wind_Speed
17 16 16 17 18 14 13 12 12 11 10 10 10 9 8 7 7 6 6 6 5 4 4 4 4 4 4 4 4 5 5 6 7 7 7 7 8 8 10 11 10 10 11 12 12 12 13 13 12
17 17 17 18 17 14 13 14 13 12 11 11 10 10 9 8 7 7 6 6 5 5 5 4 4 4 4 5 6 6 6 7 7 7 8 8 7 8 9 11 12 12 12 13 13 12 13 13 12
18 18 19 19 16 15 14 14 14 14 13 12 11 11 10 9 8 7 7 7 6 6 5 4 4 5 5 6 6 7 7 8 8 7 8 8 8 8 9 11 12 12 12 13 13 13 13 13 12
18 19 20 18 17 16 16 15 15 15 14 13 13 12 11 10 8 8 7 7 6 5 5 5 5 5 5 6 7 7 7 7 7 8 8 8 9 9 10 11 11 11 11 12 13 14 14 13 13
19 21 19 17 17 17 17 16 16 16 16 14 13 12 12 11 10 9 8 7 6 5 5 4 5 5 5 5 6 6 7 7 8 7 8 9 9 10 11 10 10 10 11 12 12 12 13 13 12
20 20 18 17 18 18 17 16 17 17 16 15 14 13 12 12 10 9 8 7 6 5 4 4 5 5 5 5 6 7 7 7 7 7 8 9 8 9 10 10 10 10 11 12 11 10 10 10 10
20 19 17 17 18 18 17 16 17 17 16 15 14 13 13 12 11 9 8 8 6 5 4 4 4 4 4 4 6 6 7 7 7 8 8 9 9 9 10 10 10 10 11 11 11 10 10 9 9
18 19 17 18 18 18 18 17 17 17 16 16 15 14 13 13 12 11 9 8 6 5 4 3 3 4 5 5 6 7 7 7 7 7 8 9 10 10 10 10 10 11 11 11 10 9 9 9 8
17 17 16 17 18 18 18 18 17 17 17 16 15 14 13 13 12 11 10 9 8 6 5 4 4 5 5 5 5 7 7 7 7 7 9 9 10 10 10 11 11 12 12 11 10 10 9 8 7
16 15 16 17 18 18 18 19 18 18 18 17 15 15 13 13 12 12 11 10 9 7 6 5 6 6 6 6 6 7 7 7 8 8 9 9 10 10 11 11 10 10 10 10 10 10 9 8 7
14 14 15 16 17 18 18 19 19 18 17 17 16 15 14 13 12 12 11 10 9 8 6 6 6 6 6 6 7 7 7 7 8 8 8 9 10 10 10 9 8 8 9 9 8 8 7 6 6
12 13 14 16 16 17 18 18 19 18 17 16 16 14 14 13 12 12 11 11 10 8 7 6 7 7 7 7 7 7 7 7 8 9 9 9 9 9 9 9 8 8 8 8 7 7 7 6 5
10 12 14 14 15 16 17 17 18 17 17 16 16 15 14 14 13 12 11 11 10 9 9 9 8 7 7 7 7 7 7 8 8 8 9 8 8 8 8 8 7 7 7 6 6 6 6 5 4
9 11 12 13 14 15 15 16 16 17 16 16 15 15 14 14 13 12 11 11 10 10 9 9 8 8 8 7 7 7 7 7 7 8 8 8 7 7 7 6 6 6 5 5 5 5 4 3 3
7 9 11 12 13 14 14 15 15 15 16 16 15 14 14 14 13 13 12 11 10 10 10 9 9 8 8 7 7 7 6 6 6 7 7 7 6 6 6 6 5 5 4 4 5 4 4 3 4
5 8 9 10 11 12 13 14 14 14 14 15 15 14 13 13 13 13 12 11 10 10 10 9 9 9 8 7 7 7 7 6 7 6 6 6 6 5 5 5 5 4 4 3 3 4 4 4 4
3 4 4 6 8 10 11 12 13 13 13 14 14 14 13 12 12 12 12 11 10 9 9 8 8 8 8 8 7 7 7 7 7 6 6 6 5 5 5 4 4 3 3 3 3 3 4 4 4
2 0 2 4 6 8 9 10 11 11 11 12 13 13 12 11 11 11 11 11 10 9 9 8 8 8 8 8 8 7 7 7 6 6 6 5 5 4 4 4 3 3 2 2 3 3 3 4 4
5 3 3 4 4 5 7 8 10 10 11 11 11 11 11 11 10 10 10 10 10 9 9 8 7 7 7 7 7 7 7 6 6 5 5 5 4 4 3 3 3 2 2 2 2 2 3 3 3
7 5 5 5 5 5 6 7 8 9 10 10 10 11 10 10 10 10 9 9 9 9 9 8 7 7 7 7 7 7 7 6 6 5 5 4 4 4 3 2 2 2 1 2 2 2 3 3 3
9 7 7 6 5 6 6 6 7 8 8 9 10 10 10 9 8 9 9 8 8 8 8 7 7 7 7 6 7 7 7 7 7 6 5 5 4 4 3 2 1 1 1 2 3 3 2 2 3
11 10 9 7 6 7 6 6 8 8 8 8 9 9 8 8 8 8 8 8 7 7 7 7 7 6 6 6 6 6 7 7 6 6 6 5 5 4 4 3 3 2 1 1 1 2 3 4 5
14 12 11 10 8 8 8 7 8 7 7 7 8 7 7 7 7 7 7 7 6 6 6 6 5 6 6 6 6 5 6 6 6 6 5 5 5 5 4 4 3 3 2 1 2 2 3 4 5
16 14 13 12 10 10 10 8 7 7 7 7 7 7 6 7 7 6 6 6 6 5 5 5 4 5 5 5 5 5 4 5 5 5 5 4 4 4 4 4 4 4 3 2 3 4 4 5 5
18 15 13 12 12 12 12 10 9 8 7 7 7 7 7 7 6 6 6 6 5 4 4 4 3 3 4 4 4 4 3 3 3 4 4 3 3 3 3 3 3 4 4 4 5 5 5 5 5
20 18 16 14 13 13 14 11 10 9 8 8 7 7 7 7 7 7 6 6 5 4 3 3 2 2 3 3 3 2 3 3 2 2 2 2 3 3 2 3 3 4 4 5 5 6 6 6 6
22 21 18 16 15 14 14 14 11 10 9 9 9 9 8 8 8 8 7 6 6 5 4 4 3 3 3 4 3 2 3 3 3 3 2 2 3 3 3 3 4 4 5 6 7 7 7 7 7
24 21 20 18 16 15 14 14 13 12 11 10 10 10 10 10 9 9 8 8 7 6 6 5 4 4 4 4 4 4 4 4 4 4 4 4 5 5 5 5 6 7 8 8 9 9 9 9 9
25 23 21 20 19 16 16 15 15 14 12 11 11 11 12 11 10 10 9 9 9 8 7 7 7 7 6 6 5 6 5 5 5 5 5 6 7 7 7 8 9 10 10 11 11 11 10 10 10
26 24 23 22 21 19 17 17 16 15 13 13 12 12 12 12 12 11 11 11 11 10 9 9 9 9 8 8 7 7 7 7 7 7 7 9 9 10 10 10 10 11 12 12 13 12 12 13 13
Wind_Direction
64 66 66 66 65 63 65 69 72 73 76 80 82 82 81 83 90 96 98 98 97 100 107 106 110 120 130 127 122 128 119 124 133 127 124 130 132 130 128 138 141 144 144 144 147 148 149 148 148
65 65 65 65 65 61 64 68 70 71 75 79 80 79 77 77 81 86 90 93 94 106 108 106 113 120 131 134 130 127 126 135 132 128 124 126 133 136 129 134 137 139 141 142 145 145 143 144 144
64 65 65 65 65 64 65 67 69 69 71 73 76 76 75 75 78 82 85 86 92 103 103 107 112 116 126 136 135 129 129 134 130 129 129 130 134 138 135 132 139 142 144 147 149 145 142 141 142
63 66 64 64 63 64 65 65 67 68 68 69 72 73 73 72 75 79 83 84 86 94 100 104 109 114 121 130 131 132 131 135 133 130 133 130 131 140 141 139 134 136 140 148 149 143 142 143 143
63 65 63 63 63 62 62 63 65 67 67 67 68 69 69 70 73 77 83 84 84 92 100 103 107 113 119 124 128 134 137 137 135 130 129 131 135 135 140 142 136 134 136 142 142 142 143 141 140
63 66 65 63 62 62 61 62 63 64 65 66 65 66 66 67 70 73 77 82 87 93 99 101 105 113 119 123 129 132 136 138 138 135 131 128 130 134 132 136 140 136 136 139 135 139 145 146 143
68 69 65 62 59 59 61 61 62 62 63 64 63 63 64 65 65 70 74 77 81 87 93 100 100 109 119 126 131 129 131 136 136 137 133 132 130 129 133 137 139 141 143 139 137 138 140 141 143
67 65 60 61 59 58 59 60 60 61 63 63 62 60 62 63 64 67 67 70 75 81 87 96 101 111 119 122 131 128 131 136 134 130 130 133 134 133 135 141 142 148 146 142 140 140 138 136 137
66 65 62 62 60 57 58 59 59 60 61 59 59 60 60 61 62 62 63 67 72 77 82 87 94 103 108 116 129 130 129 134 137 133 128 132 133 132 138 142 142 145 146 146 142 140 138 139 138
68 69 64 62 61 59 57 57 57 58 57 55 56 58 59 60 61 59 60 62 67 72 76 82 87 95 99 108 118 121 121 128 136 134 134 134 136 136 136 138 141 146 146 143 142 140 140 142 143
69 68 64 62 61 59 57 55 54 54 54 53 53 54 55 58 59 59 61 63 65 67 76 87 84 89 98 104 110 111 114 120 128 133 133 131 133 135 134 136 143 144 145 143 143 142 142 147 149
69 64 61 59 57 57 56 54 52 52 51 52 51 52 50 54 57 58 60 62 63 65 74 88 88 90 98 102 109 112 113 117 121 125 129 129 125 124 125 128 136 140 142 141 139 146 149 156 160
71 64 60 56 54 56 56 54 51 50 50 51 50 49 46 48 52 55 57 61 62 63 69 82 82 86 94 100 107 111 112 117 123 129 131 130 127 126 126 129 130 132 138 144 144 148 158 166 171
71 64 58 54 53 52 53 53 50 48 47 48 47 46 45 47 50 53 55 59 63 64 69 77 78 83 89 95 103 113 119 127 129 133 137 136 135 131 132 134 137 143 145 150 157 163 171 174 182
73 65 59 53 49 49 50 48 48 46 45 46 45 44 44 47 49 50 52 55 61 65 68 74 78 81 86 91 94 101 114 125 132 136 136 140 139 139 140 144 144 148 154 158 166 175 182 196 198
68 56 48 47 47 45 46 42 42 42 42 42 42 41 42 44 46 47 49 52 57 63 68 71 75 77 82 89 94 98 106 119 129 135 133 136 137 141 147 154 155 155 159 171 183 190 193 196 201
58 55 41 38 42 40 40 36 35 35 37 38 37 37 38 41 43 44 48 51 54 59 65 69 70 73 76 81 91 96 102 109 119 127 127 130 136 141 149 153 156 158 164 181 197 210 208 204 208
208 107 356 12 26 30 30 28 27 28 28 30 31 32 33 36 41 42 45 49 53 56 59 64 66 68 71 76 83 90 99 104 112 120 126 126 133 141 148 154 160 165 175 187 203 214 221 223 227
218 246 293 316 349 4 10 14 19 24 22 21 23 25 28 33 36 39 42 46 51 54 56 60 64 68 72 76 81 87 93 98 104 111 122 131 133 134 133 148 165 170 178 196 209 228 229 235 241
234 246 277 297 317 332 341 357 8 16 18 16 15 16 22 29 32 34 38 43 48 53 57 61 65 70 73 77 81 83 87 92 98 103 106 115 124 122 123 137 148 169 204 230 239 253 257 261 258
236 244 255 273 298 316 334 344 350 0 7 9 9 12 17 22 26 28 32 37 44 50 53 57 62 65 69 74 81 83 84 87 90 92 93 93 101 98 99 99 96 142 254 259 263 269 280 285 280
240 247 252 261 284 302 315 319 326 340 350 357 1 5 10 15 18 21 24 29 37 42 49 52 54 57 61 68 78 83 83 83 84 86 87 82 84 83 78 77 66 58 25 332 293 278 277 281 281
237 247 252 256 268 281 292 297 304 319 336 343 350 352 357 5 10 12 13 18 27 33 38 39 46 51 55 59 68 77 78 78 77 78 80 79 75 72 67 62 56 47 40 29 347 314 297 290 284
237 244 252 256 262 268 275 282 289 302 316 321 332 337 339 346 353 358 1 5 15 23 24 24 38 49 54 55 59 66 72 74 72 69 71 73 71 68 60 55 46 36 25 10 347 327 315 302 296
234 240 251 258 260 261 267 269 272 287 296 304 312 320 323 326 332 337 343 350 356 1 10 14 24 37 47 45 47 54 59 62 64 60 59 60 60 55 47 42 31 19 10 360 349 336 326 317 313
235 236 240 247 254 260 267 268 273 277 284 288 295 304 312 313 313 315 321 327 331 334 342 356 360 3 7 7 11 17 18 25 28 34 38 41 36 27 19 14 4 355 351 348 342 334 326 320 312
235 237 238 246 250 253 259 270 273 271 275 279 281 289 297 301 303 301 303 308 307 307 312 322 329 323 331 336 339 332 328 332 338 345 330 340 341 338 341 345 338 334 331 329 324 323 318 315 311
233 237 238 237 244 250 259 268 273 270 269 274 274 279 283 288 292 291 293 295 294 290 291 293 302 304 309 314 316 320 311 306 315 321 324 318 315 318 306 311 316 317 316 316 318 318 315 310 307
234 234 238 240 241 247 256 262 272 272 269 274 275 275 273 275 279 279 281 285 284 284 284 282 288 291 293 297 301 307 302 296 298 306 304 306 308 311 309 305 307 310 311 314 311 311 310 306 304
234 236 239 240 245 248 252 260 267 273 269 269 271 271 269 266 268 271 273 277 277 275 275 276 280 285 286 286 286 290 294 290 289 290 296 299 301 303 304 305 308 310 310 312 312 307 307 306 303
Height
5889 5888 5887 5887 5887 5887 5885 5883 5881 5880 5879 5877 5876 5876 5875 5875 5875 5876 5873 5871 5871 5871 5871 5870 5870 5870 5870 5870 5870 5870 5869 5869 5869 5869 5869 5869 5870 5870 5869 5869 5870 5871 5872 5873 5874 5876 5877 5879 5880
5891 5890 5890 5890 5890 5889 5887 5885 5883 5881 5880 5879 5877 5877 5876 5875 5875 5874 5872 5872 5872 5872 5871 5871 5871 5871 5871 5871 5871 5871 5870 5870 5869 5870 5870 5870 5870 5871 5870 5870 5872 5872 5873 5874 5876 5877 5879 5880 5882
5894 5893 5893 5893 5892 5891 5889 5887 5884 5883 5881 5880 5879 5878 5877 5876 5875 5874 5874 5873 5873 5872 5872 5872 5872 5872 5872 5872 5872 5871 5871 5870 5870 5870 5871 5871 5871 5871 5871 5872 5873 5875 5876 5877 5878 5879 5881 5882 5884
5896 5896 5896 5897 5894 5893 5891 5888 5886 5884 5883 5881 5881 5880 5878 5877 5876 5876 5875 5874 5874 5873 5873 5873 5873 5873 5873 5873 5872 5872 5872 5872 5871 5871 5872 5872 5872 5872 5873 5873 5875 5876 5877 5877 5879 5881 5882 5884 5885
5899 5899 5901 5899 5896 5895 5892 5890 5888 5886 5885 5883 5882 5881 5880 5879 5878 5877 5876 5875 5875 5875 5874 5874 5874 5874 5874 5873 5873 5873 5873 5873 5872 5872 5873 5873 5873 5873 5874 5875 5876 5877 5878 5879 5881 5882 5884 5885 5886
5903 5904 5904 5901 5899 5897 5895 5892 5890 5888 5887 5885 5884 5883 5881 5880 5879 5878 5877 5877 5876 5876 5875 5875 5875 5875 5874 5874 5874 5874 5874 5874 5873 5873 5873 5874 5874 5875 5876 5877 5877 5879 5880 5881 5883 5884 5885 5886 5888
5907 5907 5906 5904 5901 5899 5897 5895 5892 5891 5889 5887 5886 5885 5883 5882 5881 5880 5879 5878 5877 5877 5876 5876 5876 5875 5875 5874 5874 5874 5874 5874 5874 5874 5874 5875 5876 5876 5877 5878 5879 5880 5881 5882 5884 5885 5887 5888 5889
5909 5910 5909 5906 5904 5902 5900 5897 5895 5893 5891 5890 5888 5887 5886 5884 5883 5881 5880 5879 5878 5878 5878 5877 5876 5876 5875 5875 5875 5875 5875 5875 5875 5875 5875 5876 5877 5877 5878 5879 5880 5880 5882 5884 5885 5887 5888 5889 5890
5911 5914 5912 5909 5907 5904 5902 5899 5898 5895 5894 5892 5890 5889 5888 5886 5885 5883 5882 5881 5880 5879 5879 5878 5877 5876 5876 5875 5875 5875 5875 5875 5876 5876 5876 5877 5878 5879 5880 5881 5882 5883 5884 5885 5887 5888 5890 5891 5892
5915 5916 5913 5911 5909 5907 5904 5902 5900 5898 5896 5894 5893 5891 5890 5888 5887 5886 5884 5883 5882 5881 5880 5879 5878 5877 5877 5876 5876 5876 5876 5877 5877 5877 5878 5879 5879 5880 5881 5882 5884 5885 5886 5887 5888 5889 5890 5892 5893
5917 5917 5915 5913 5911 5909 5907 5904 5902 5900 5899 5897 5895 5894 5892 5890 5889 5888 5886 5885 5884 5883 5881 5880 5880 5879 5878 5878 5878 5877 5878 5878 5878 5879 5880 5880 5881 5882 5883 5884 5885 5886 5887 5888 5889 5890 5891 5892 5893
5919 5918 5916 5915 5913 5911 5909 5907 5905 5903 5902 5900 5898 5896 5894 5893 5891 5890 5888 5887 5886 5885 5883 5882 5881 5880 5880 5879 5879 5879 5879 5880 5880 5880 5881 5882 5883 5884 5884 5885 5886 5887 5888 5889 5890 5891 5892 5893 5894
5921 5920 5918 5917 5915 5913 5912 5910 5908 5906 5904 5902 5900 5899 5897 5895 5893 5892 5890 5889 5888 5886 5884 5884 5883 5883 5882 5881 5881 5881 5881 5881 5882 5882 5883 5884 5885 5886 5886 5887 5888 5888 5889 5890 5891 5891 5892 5893 5894
5923 5922 5920 5919 5917 5916 5914 5912 5911 5909 5907 5905 5903 5901 5899 5897 5896 5894 5892 5891 5889 5888 5887 5885 5885 5884 5884 5883 5883 5883 5883 5883 5884 5884 5885 5886 5886 5887 5887 5888 5889 5889 5890 5891 5891 5892 5892 5893 5893
5924 5923 5923 5921 5919 5918 5917 5915 5913 5911 5909 5907 5905 5904 5902 5900 5898 5896 5894 5893 5892 5890 5889 5888 5887 5886 5885 5885 5884 5884 5884 5885 5885 5886 5886 5887 5888 5888 5889 5890 5890 5890 5891 5891 5892 5892 5893 5893 5893
5925 5925 5925 5924 5921 5920 5920 5919 5916 5914 5912 5910 5908 5906 5904 5902 5900 5899 5897 5895 5894 5892 5891 5890 5889 5888 5887 5887 5886 5886 5886 5886 5886 5887 5888 5888 5889 5889 5890 5890 5891 5891 5891 5892 5892 5892 5893 5893 5893
5927 5927 5927 5925 5923 5922 5921 5920 5918 5916 5914 5912 5910 5908 5906 5904 5902 5901 5899 5897 5896 5894 5893 5892 5891 5890 5889 5888 5888 5887 5887 5887 5887 5888 5888 5889 5889 5890 5890 5891 5891 5891 5892 5892 5892 5892 5892 5893 5893
5928 5928 5927 5926 5924 5923 5922 5921 5919 5917 5916 5914 5912 5910 5908 5906 5905 5903 5901 5899 5898 5896 5895 5894 5893 5892 5891 5890 5890 5889 5889 5889 5889 5889 5889 5889 5890 5890 5891 5891 5891 5892 5892 5892 5892 5892 5892 5892 5892
5926 5927 5927 5926 5925 5924 5923 5922 5921 5919 5917 5915 5913 5912 5910 5908 5906 5905 5903 5901 5900 5898 5897 5895 5894 5894 5893 5892 5891 5891 5890 5890 5890 5890 5890 5890 5890 5891 5891 5892 5892 5892 5892 5892 5892 5892 5892 5892 5891
5925 5926 5926 5925 5925 5924 5923 5923 5921 5920 5918 5916 5915 5913 5911 5910 5908 5907 5905 5903 5901 5900 5899 5897 5896 5895 5894 5894 5893 5892 5892 5891 5891 5891 5891 5891 5891 5891 5891 5892 5892 5892 5892 5892 5892 5892 5892 5891 5891
5923 5925 5925 5925 5924 5924 5924 5923 5922 5921 5919 5918 5916 5914 5912 5911 5910 5908 5907 5905 5903 5902 5900 5899 5898 5897 5896 5895 5895 5894 5893 5893 5893 5892 5892 5892 5892 5892 5892 5892 5892 5892 5892 5891 5891 5891 5891 5891 5890
5921 5922 5923 5923 5924 5924 5924 5925 5922 5921 5919 5918 5916 5915 5913 5912 5911 5909 5908 5907 5905 5903 5902 5900 5899 5898 5898 5897 5896 5896 5895 5895 5894 5894 5893 5893 5893 5893 5892 5892 5892 5891 5891 5891 5891 5890 5890 5890 5889
5918 5919 5920 5921 5922 5923 5922 5923 5923 5920 5919 5918 5917 5915 5914 5912 5911 5910 5909 5908 5906 5905 5903 5902 5901 5900 5899 5899 5898 5897 5897 5896 5896 5895 5895 5894 5894 5893 5893 5892 5892 5891 5891 5890 5890 5889 5889 5888 5888
5915 5917 5918 5919 5920 5921 5921 5921 5922 5920 5919 5917 5916 5915 5914 5913 5912 5910 5909 5908 5907 5906 5905 5903 5902 5901 5900 5900 5899 5898 5898 5897 5897 5896 5896 5895 5895 5894 5893 5893 5892 5891 5891 5890 5889 5888 5888 5887 5887
5912 5915 5917 5918 5919 5919 5918 5918 5919 5918 5917 5916 5915 5915 5914 5913 5911 5910 5909 5908 5907 5906 5905 5904 5902 5902 5901 5901 5900 5899 5899 5898 5898 5897 5896 5896 5895 5895 5894 5893 5892 5891 5891 5890 5889 5888 5887 5886 5885
5908 5912 5914 5916 5917 5917 5915 5915 5917 5916 5915 5914 5914 5913 5912 5912 5911 5910 5909 5908 5907 5906 5905 5904 5903 5902 5901 5901 5900 5900 5900 5899 5898 5897 5897 5896 5896 5895 5894 5893 5892 5891 5890 5889 5888 5887 5886 5885 5884
5904 5906 5910 5912 5912 5913 5913 5912 5913 5913 5913 5912 5912 5911 5911 5910 5910 5909 5908 5907 5906 5906 5905 5904 5903 5902 5902 5901 5900 5900 5899 5899 5898 5897 5897 5896 5896 5895 5894 5893 5892 5891 5890 5889 5887 5886 5884 5883 5882
5899 5902 5905 5907 5908 5910 5911 5910 5911 5910 5910 5910 5910 5909 5909 5908 5908 5907 5907 5906 5905 5905 5904 5904 5903 5902 5902 5901 5900 5899 5899 5898 5898 5897 5897 5896 5895 5894 5893 5892 5891 5890 5889 5887 5886 5884 5883 5881 5880
5894 5897 5899 5902 5904 5906 5907 5909 5907 5906 5907 5907 5907 5906 5906 5905 5905 5905 5905 5904 5904 5903 5903 5902 5902 5901 5900 5900 5899 5898 5897 5897 5897 5896 5895 5895 5894 5893 5892 5891 5890 5888 5887 5885 5884 5882 5880 5879 5878
5888 5891 5894 5897 5898 5900 5902 5906 5903 5902 5903 5903 5903 5903 5903 5902 5902 5902 5902 5902 5902 5901 5901 5900 5900 5899 5899 5898 5897 5897 5896 5895 5895 5894 5894 5893 5892 5891 5890 5889 5887 5886 5884 5883 5881 5879 5878 5877 5875